Location: *
(58.4167°N, 22.5000°E)
Time: 21:31:39
(UTC+00:00)

Cosmos 1844 Rocket - Pass Details

Date: 22 September 2019
Orbit: 824 x 844 km, 71.0° (Epoch: 18 October)

Event Time Altitude Azimuth Distance (km) Brightness Sun altitude
Exits shadow 23:09:48 55° 324° (NW) 1,009 3.1 -30.7°
Drops below altitude 10° 23:15:14 10° 36° (NE) 2,473 5.9 -30.5°
Sets 23:17:45 0° 40° (NE) 3,408 6.8 -30.4°
